CDF78S ESSV-EFTU

Flight info

Callsign CDF78S
Flight time 0h 37m
Altitude 29000
Route ROGMI DCT NISIX DCT EMPOM
Aircraft A21N/M-SDE2E3FGHIRWXY/LB1

Departure

Time 2026-05-06 18:12
Airport Visby Airport (ESSV)

Arrival

Time 2026-05-06 18:49
Airport Turku Airport (EFTU)
Time Latitude Longitude Altitude Speed Heading
2026-05-06 17:50 57.66059 18.33953 151 ft 0 kts 333°
2026-05-06 18:08 57.66069 18.33959 151 ft 4 kts 43°
2026-05-06 18:08 57.66053 18.34008 151 ft 6 kts 149°
2026-05-06 18:08 57.66020 18.34063 150 ft 4 kts 117°
2026-05-06 18:09 57.66015 18.34084 150 ft 3 kts 113°
2026-05-06 18:09 57.66003 18.34135 150 ft 6 kts 112°
2026-05-06 18:09 57.65981 18.34240 153 ft 11 kts 110°
2026-05-06 18:09 57.65931 18.34358 154 ft 14 kts 175°
2026-05-06 18:10 57.65835 18.34300 154 ft 16 kts 201°
2026-05-06 18:10 57.65719 18.34206 159 ft 20 kts 207°
2026-05-06 18:10 57.65590 18.34095 160 ft 22 kts 200°
2026-05-06 18:10 57.65481 18.34018 157 ft 7 kts 201°
2026-05-06 18:11 57.65467 18.34037 157 ft 2 kts 68°
2026-05-06 18:11 57.65494 18.34056 158 ft 7 kts 24°
2026-05-06 18:11 57.65570 18.34113 163 ft 31 kts 21°
2026-05-06 18:11 57.66033 18.34446 153 ft 108 kts 21°
2026-05-06 18:12 57.66888 18.35042 394 ft 136 kts 23°
2026-05-06 18:12 57.67759 18.35619 1054 ft 133 kts 18°
2026-05-06 18:12 57.68676 18.35468 1605 ft 142 kts 341°
2026-05-06 18:12 57.69588 18.34662 1955 ft 147 kts 341°
2026-05-06 18:13 57.70599 18.33901 2283 ft 170 kts 343°
2026-05-06 18:13 57.71809 18.33155 2765 ft 197 kts 344°
2026-05-06 18:13 57.73190 18.32234 3333 ft 225 kts 342°
2026-05-06 18:13 57.74742 18.31183 3982 ft 248 kts 342°
2026-05-06 18:14 57.76406 18.30053 4887 ft 258 kts 341°
2026-05-06 18:14 57.78108 18.28867 5926 ft 263 kts 341°
2026-05-06 18:14 57.79835 18.27661 6926 ft 267 kts 342°
2026-05-06 18:14 57.81618 18.26545 7861 ft 272 kts 350°
2026-05-06 18:15 57.83502 18.26633 8532 ft 275 kts 14°
2026-05-06 18:15 57.85222 18.28161 8850 ft 275 kts 35°
2026-05-06 18:15 57.86724 18.30322 9304 ft 276 kts 38°
2026-05-06 18:15 57.88254 18.32577 10228 ft 284 kts 37°
2026-05-06 18:16 57.89888 18.34931 10715 ft 308 kts 37°
2026-05-06 18:16 57.91671 18.37461 11110 ft 333 kts 36°
2026-05-06 18:16 57.93573 18.40140 11716 ft 348 kts 36°
2026-05-06 18:16 57.95528 18.42891 12563 ft 355 kts 35°
2026-05-06 18:17 57.97528 18.45699 13446 ft 361 kts 35°
2026-05-06 18:17 57.99556 18.48543 14261 ft 367 kts 35°
2026-05-06 18:17 58.01619 18.51440 15010 ft 373 kts 35°
2026-05-06 18:17 58.03691 18.54347 15738 ft 380 kts 34°
2026-05-06 18:18 58.05830 18.57353 16462 ft 387 kts 34°
2026-05-06 18:18 58.08006 18.60415 17179 ft 393 kts 34°
2026-05-06 18:18 58.10218 18.63534 17872 ft 400 kts 34°
2026-05-06 18:18 58.12462 18.66714 18537 ft 406 kts 34°
2026-05-06 18:19 58.14744 18.69943 19148 ft 412 kts 34°
2026-05-06 18:19 58.17050 18.73203 19768 ft 416 kts 34°
2026-05-06 18:19 58.19381 18.76509 20373 ft 421 kts 34°
2026-05-06 18:19 58.21703 18.79817 20989 ft 426 kts 34°
2026-05-06 18:20 58.24085 18.83222 21564 ft 431 kts 34°
2026-05-06 18:20 58.26497 18.86663 22137 ft 436 kts 34°
2026-05-06 18:20 58.28929 18.90146 22740 ft 441 kts 35°
2026-05-06 18:20 58.31391 18.93681 23324 ft 445 kts 35°
2026-05-06 18:21 58.33877 18.97255 23861 ft 450 kts 35°
2026-05-06 18:21 58.36387 19.00865 24366 ft 454 kts 35°
2026-05-06 18:21 58.38917 19.04503 24871 ft 458 kts 35°
2026-05-06 18:21 58.41466 19.08187 25373 ft 461 kts 35°
2026-05-06 18:22 58.44001 19.11855 25863 ft 465 kts 35°
2026-05-06 18:22 58.46581 19.15592 26443 ft 466 kts 35°
2026-05-06 18:22 58.49165 19.19339 26998 ft 468 kts 35°
2026-05-06 18:22 58.51766 19.23119 27468 ft 471 kts 35°
2026-05-06 18:23 58.54398 19.26947 27749 ft 479 kts 35°
2026-05-06 18:23 58.57062 19.30832 28091 ft 484 kts 35°
2026-05-06 18:23 58.59748 19.34765 28598 ft 486 kts 36°
2026-05-06 18:23 58.62436 19.38709 28985 ft 486 kts 36°
2026-05-06 18:24 58.65080 19.42591 29064 ft 475 kts 36°
2026-05-06 18:24 58.67696 19.46434 29059 ft 473 kts 36°
2026-05-06 18:24 58.72917 19.54144 29043 ft 475 kts 36°
2026-05-06 18:25 58.78111 19.61813 29027 ft 473 kts 36°
2026-05-06 18:25 58.83313 19.69537 29037 ft 471 kts 36°
2026-05-06 18:26 58.88500 19.77291 29036 ft 472 kts 36°
2026-05-06 18:26 58.93651 19.85017 29088 ft 471 kts 36°
2026-05-06 18:27 58.98815 19.92785 29042 ft 469 kts 36°
2026-05-06 18:27 59.03947 20.00534 29040 ft 466 kts 36°
2026-05-06 18:28 59.09059 20.08289 29040 ft 466 kts 36°
2026-05-06 18:28 59.14133 20.16030 29040 ft 466 kts 36°
2026-05-06 18:29 59.19227 20.23807 29049 ft 464 kts 36°
2026-05-06 18:29 59.24312 20.31603 29027 ft 464 kts 36°
2026-05-06 18:30 59.29359 20.39358 29023 ft 460 kts 36°
2026-05-06 18:30 59.34494 20.46864 29035 ft 468 kts 32°
2026-05-06 18:31 59.39868 20.54321 29046 ft 474 kts 33°
2026-05-06 18:31 59.45170 20.61691 28085 ft 470 kts 31°
2026-05-06 18:32 59.47925 20.65124 27302 ft 468 kts 27°
2026-05-06 18:32 59.50706 20.68385 26792 ft 462 kts 27°
2026-05-06 18:32 59.53459 20.71608 26460 ft 459 kts 27°
2026-05-06 18:32 59.56181 20.74806 25834 ft 454 kts 27°
2026-05-06 18:33 59.58889 20.78018 24768 ft 454 kts 27°
2026-05-06 18:33 59.61589 20.81242 23671 ft 454 kts 27°
2026-05-06 18:33 59.64246 20.84431 22591 ft 450 kts 27°
2026-05-06 18:33 59.66896 20.87619 21680 ft 441 kts 27°
2026-05-06 18:34 59.69493 20.90743 20823 ft 433 kts 27°
2026-05-06 18:34 59.72047 20.93817 19940 ft 425 kts 27°
2026-05-06 18:34 59.74552 20.96845 19093 ft 419 kts 27°
2026-05-06 18:34 59.77020 20.99823 18427 ft 412 kts 27°
2026-05-06 18:35 59.79451 21.02757 17704 ft 405 kts 27°
2026-05-06 18:35 59.81840 21.05650 16968 ft 399 kts 27°
2026-05-06 18:35 59.84160 21.08454 16254 ft 393 kts 27°
2026-05-06 18:35 59.86471 21.11254 15629 ft 387 kts 28°
2026-05-06 18:36 59.88751 21.14028 15088 ft 381 kts 28°
2026-05-06 18:36 59.91002 21.16770 14545 ft 376 kts 28°
2026-05-06 18:36 59.93221 21.19478 14014 ft 372 kts 28°
2026-05-06 18:36 59.95408 21.22159 13469 ft 367 kts 28°
2026-05-06 18:37 59.97570 21.24813 12933 ft 362 kts 29°
2026-05-06 18:37 59.98973 21.26540 12727 ft 354 kts 29°
2026-05-06 18:37 60.01713 21.29918 12423 ft 337 kts 29°
2026-05-06 18:37 60.03649 21.32304 12242 ft 325 kts 29°
2026-05-06 18:38 60.05535 21.34633 12087 ft 313 kts 29°
2026-05-06 18:38 60.07354 21.36879 11857 ft 303 kts 29°
2026-05-06 18:38 60.09145 21.39093 11392 ft 302 kts 29°
2026-05-06 18:38 60.10924 21.41293 10938 ft 300 kts 30°
2026-05-06 18:39 60.12691 21.43483 10526 ft 296 kts 30°
2026-05-06 18:39 60.14433 21.45646 10098 ft 294 kts 31°
2026-05-06 18:39 60.16166 21.47803 9649 ft 291 kts 31°
2026-05-06 18:40 60.19581 21.52057 8737 ft 287 kts 31°
2026-05-06 18:40 60.21248 21.54140 8330 ft 284 kts 31°
2026-05-06 18:40 60.22922 21.56229 7935 ft 282 kts 31°
2026-05-06 18:40 60.24585 21.58309 7544 ft 281 kts 31°
2026-05-06 18:41 60.26236 21.60379 7162 ft 279 kts 31°
2026-05-06 18:41 60.27876 21.62436 6779 ft 277 kts 31°
2026-05-06 18:41 60.29507 21.64484 6413 ft 275 kts 31°
2026-05-06 18:41 60.31124 21.66518 6030 ft 273 kts 31°
2026-05-06 18:42 60.32723 21.68533 5708 ft 269 kts 31°
2026-05-06 18:42 60.34301 21.70522 5390 ft 266 kts 31°
2026-05-06 18:42 60.35844 21.72466 5081 ft 264 kts 31°
2026-05-06 18:42 60.37397 21.74429 4766 ft 263 kts 31°
2026-05-06 18:43 60.38943 21.76383 4470 ft 261 kts 31°
2026-05-06 18:43 60.40478 21.78327 4191 ft 260 kts 31°
2026-05-06 18:43 60.42006 21.80263 3930 ft 258 kts 31°
2026-05-06 18:43 60.43523 21.82191 3676 ft 256 kts 31°
2026-05-06 18:44 60.45017 21.84089 3411 ft 251 kts 31°
2026-05-06 18:44 60.46471 21.85939 3206 ft 242 kts 31°
2026-05-06 18:44 60.47867 21.87718 3027 ft 231 kts 31°
2026-05-06 18:44 60.49103 21.89605 2864 ft 221 kts 46°
2026-05-06 18:45 60.49840 21.92191 2745 ft 205 kts 73°
2026-05-06 18:45 60.50000 21.94963 2610 ft 193 kts 84°
2026-05-06 18:45 60.50108 21.97621 2355 ft 187 kts 84°
2026-05-06 18:45 60.50184 21.99351 2218 ft 185 kts 84°
2026-05-06 18:46 60.50336 22.02823 2052 ft 184 kts 85°
2026-05-06 18:46 60.50428 22.05397 1771 ft 181 kts 85°
2026-05-06 18:46 60.50534 22.07852 1549 ft 167 kts 83°
2026-05-06 18:46 60.50663 22.10149 1420 ft 162 kts 83°
2026-05-06 18:47 60.50770 22.12368 1253 ft 144 kts 84°
2026-05-06 18:47 60.50864 22.14262 1057 ft 134 kts 84°
2026-05-06 18:47 60.50950 22.16138 901 ft 134 kts 84°
2026-05-06 18:47 60.51031 22.18030 742 ft 134 kts 83°
2026-05-06 18:48 60.51131 22.19923 569 ft 136 kts 83°
2026-05-06 18:48 60.51215 22.21815 392 ft 135 kts 84°
2026-05-06 18:48 60.51298 22.23709 222 ft 135 kts 84°
2026-05-06 18:48 60.51378 22.25517 167 ft 115 kts 85°
2026-05-06 18:49 60.51422 22.26556 175 ft 50 kts 85°
2026-05-06 18:49 60.51443 22.26958 174 ft 14 kts 86°
2026-05-06 18:49 60.51374 22.27050 176 ft 15 kts 178°
2026-05-06 18:49 60.51328 22.27073 177 ft 6 kts 122°
2026-05-06 18:50 60.51329 22.27184 177 ft 9 kts 84°
2026-05-06 18:50 60.51300 22.27295 177 ft 12 kts 170°
2026-05-06 18:50 60.51226 22.27281 179 ft 8 kts 149°
2026-05-06 18:50 60.51195 22.27319 180 ft 3 kts 150°
2026-05-06 18:51 60.51181 22.27335 180 ft 0 kts 150°